This demonstration page uses our WeatherBlox Daily Observations layout. Learn more.

Hourly Observations for June 8, 2020

Temp ( °F °C ) Dew Point ( °F °C ) Humidity (%) Winds ( mph kmh ) Pressure ( in mb ) Visibility ( mi km ) Precip ( " mm )
12:15 am 00:15 Clear 78 25.5 54 12.4 44 44 SSE 24 39 29.54 1000 10 16.0934 0 0
12:35 am 00:35 Clear 78 25.4 56 13.1 47 47 SSE 26 43 29.54 1000 10 16.0934 0 0
12:55 am 00:55 Clear 77 25 57 13.7 50 50 SSE 26 43 29.55 1001 10 16.0934 0 0
1:15 am 01:15 Clear 76 24.5 57 14.1 52 52 SSE 24 39 29.55 1001 10 16.0934 0 0
1:35 am 01:35 Clear 76 24.3 58 14.5 54 54 SSE 23 37 29.55 1001 10 16.0934 0 0
1:55 am 01:55 Clear 75 24 59 15 57 57 S 23 37 29.56 1001 10 16.0934 0 0
2:15 am 02:15 Clear 75 23.7 59 15.2 59 59 S 22 35 29.55 1001 10 16.0934 0 0
2:35 am 02:35 Clear 74 23.6 60 15.6 61 61 S 21 33 29.54 1000 10 16.0934 0 0
2:55 am 02:55 Clear 74 23.5 61 16 63 63 S 23 37 29.54 1000 10 16.0934 0 0
3:15 am 03:15 Clear 74 23.2 61 16.3 65 65 S 22 35 29.55 1001 10 16.0934 0 0
3:35 am 03:35 Clear 73 23 62 16.5 67 67 S 22 35 29.54 1000 10 16.0934 0 0
3:55 am 03:55 Clear 73 23 62 16.6 67 67 S 23 37 29.54 1000 10 16.0934 0 0
4:15 am 04:15 Clear 73 23 62 16.8 68 68 S 21 33 29.55 1001 10 16.0934 0 0
4:35 am 04:35 Clear 73 23 63 17 69 69 S 22 35 29.54 1000 10 16.0934 0 0
4:55 am 04:55 Clear 73 22.8 62 16.7 69 69 S 23 37 29.55 1001 10 16.0934 0 0
5:15 am 05:15 Clear 73 22.7 62 16.5 68 68 S 25 41 29.55 1001 10 16.0934 0 0
5:35 am 05:35 Clear 73 22.7 62 16.7 69 69 S 24 39 29.56 1001 10 16.0934 0 0
5:55 am 05:55 Clear 73 22.5 62 16.7 70 70 S 18 30 29.56 1001 10 16.0934 0 0
6:15 am 06:15 Sunny 72 22.3 62 16.7 71 71 S 22 35 29.56 1001 10 16.0934 0 0
6:35 am 06:35 Sunny 72 22.2 62 16.9 72 72 S 22 35 29.57 1001 10 16.0934 0 0
6:55 am 06:55 Sunny 73 22.6 63 17 71 71 S 18 30 29.59 1002 10 16.0934 0 0
7:15 am 07:15 Sunny 73 23 63 17.1 70 70 S 18 30 29.58 1002 10 16.0934 0 0
7:35 am 07:35 Sunny 74 23.2 63 17.2 69 69 S 21 33 29.58 1002 10 16.0934 0 0
7:55 am 07:55 Sunny 74 23.6 63 17.2 67 67 S 21 33 29.59 1002 10 16.0934 0 0
8:15 am 08:15 Sunny 75 24.1 63 17.3 66 66 SSW 17 28 29.6 1003 10 16.0934 0 0
8:35 am 08:35 Sunny 76 24.6 63 17.3 64 64 S 18 30 29.6 1002 10 16.0934 0 0
8:55 am 08:55 Sunny 77 25.1 63 17.4 62 62 S 21 33 29.59 1002 10 16.0934 0 0
9:15 am 09:15 Partly Cloudy 78 25.6 64 17.5 61 61 S 18 30 29.59 1002 10 16.0934 0 0
9:35 am 09:35 Mostly Cloudy 78 25.7 64 17.5 61 61 S 17 28 29.59 1002 10 16.0934 0 0
9:55 am 09:55 Mostly Cloudy 79 26.3 64 17.7 59 59 S 18 30 29.58 1002 10 16.0934 0 0
10:15 am 10:15 Partly Cloudy 80 26.9 64 17.7 57 57 S 17 28 29.58 1002 10 16.0934 0 0
10:35 am 10:35 Mostly Cloudy 81 27.1 64 17.8 57 57 S 21 33 29.57 1001 10 16.0934 0 0
10:55 am 10:55 Mostly Cloudy 81 27.2 64 17.6 56 56 SSW 20 31 29.56 1001 10 16.0934 0 0
11:15 am 11:15 Mostly Cloudy 83 28.4 65 18.1 54 54 S 18 30 29.55 1001 10 16.0934 0 0
11:35 am 11:35 Cloudy 83 28.2 65 18.1 54 54 S 18 30 29.55 1001 10 16.0934 0 0
11:55 am 11:55 Cloudy 83 28.5 64 18 53 53 S 18 30 29.55 1001 10 16.0934 0 0
12:15 pm 12:15 Mostly Cloudy 84 28.7 64 17.8 52 52 S 18 30 29.55 1001 10 16.0934 0 0
12:35 pm 12:35 Mostly Cloudy 86 29.8 64 17.7 48 48 S 18 30 29.53 1000 10 16.0934 0 0
12:55 pm 12:55 Mostly Cloudy 86 30 64 17.6 47 47 S 14 22 29.53 1000 10 16.0934 0 0
1:15 pm 13:15 Mostly Cloudy 86 30.1 65 18.2 49 49 S 18 30 29.52 1000 10 16.0934 0 0
1:35 pm 13:35 Mostly Cloudy 87 30.6 64 18 47 47 S 20 31 29.51 999 10 16.0934 0 0
1:55 pm 13:55 Mostly Cloudy 87 30.8 65 18.1 47 47 S 18 30 29.5 999 10 16.0934 0 0
2:15 pm 14:15 Mostly Cloudy 89 31.6 65 18.4 45 45 S 18 30 29.49 999 10 16.0934 0 0
2:35 pm 14:35 Partly Cloudy 89 31.9 64 18 44 44 SSE 24 39 29.47 998 10 16.0934 0 0
2:55 pm 14:55 Sunny 90 32.1 64 17.9 43 43 SSE 21 33 29.46 998 10 16.0934 0 0
3:15 pm 15:15 Sunny 90 32.3 64 17.7 42 42 SSE 18 30 29.46 998 10 16.0934 0 0
3:35 pm 15:35 Partly Cloudy 91 32.5 64 17.9 42 42 SSE 21 33 29.45 997 10 16.0934 0 0
3:55 pm 15:55 Sunny 91 32.7 64 17.6 41 41 S 24 39 29.44 997 10 16.0934 0 0
4:15 pm 16:15 Partly Cloudy 91 33 64 17.7 40 40 S 20 31 29.44 997 10 16.0934 0 0
4:35 pm 16:35 Mostly Cloudy 91 32.8 64 17.7 41 41 SSE 24 39 29.43 997 10 16.0934 0 0
4:55 pm 16:55 Mostly Cloudy 90 32.3 64 17.9 42 42 SSE 24 39 29.43 997 10 16.0934 0 0
5:15 pm 17:15 Mostly Cloudy 90 32.3 64 17.9 42 42 SSE 22 35 29.42 996 10 16.0934 0 0
5:35 pm 17:35 Partly Cloudy 91 32.7 64 17.9 41 41 SSE 23 37 29.42 996 10 16.0934 0 0
5:55 pm 17:55 Sunny 90 32.2 64 17.8 42 42 SSE 25 41 29.42 996 10 16.0934 0 0
6:15 pm 18:15 Sunny 91 32.5 63 17.3 40 40 SSE 24 39 29.41 996 10 16.0934 0 0
6:35 pm 18:35 Sunny 90 32.3 62 16.9 40 40 SSE 23 37 29.4 996 10 16.0934 0 0
6:55 pm 18:55 Sunny 90 32.2 62 16.4 39 39 SE 25 41 29.39 995 10 16.0934 0 0
7:15 pm 19:15 Sunny 90 32 61 15.9 38 38 SSE 26 43 29.38 995 10 16.0934 0 0
7:35 pm 19:35 Sunny 89 31.6 62 16.8 41 41 SE 26 43 29.38 995 10 16.0934 0 0
7:55 pm 19:55 Sunny 88 31 63 17 43 43 SE 25 41 29.37 995 10 16.0934 0 0
8:15 pm 20:15 Sunny 87 30.6 63 17 44 44 SSE 23 37 29.37 994 10 16.0934 0 0
8:35 pm 20:35 Sunny 86 29.8 62 16.8 46 46 SE 25 41 29.37 995 10 16.0934 0 0
8:55 pm 20:55 Sunny 84 29 63 17.1 49 49 SE 24 39 29.38 995 10 16.0934 0 0
9:15 pm 21:15 Clear 83 28.5 63 17.3 51 51 SE 23 37 29.38 995 10 16.0934 0 0
9:35 pm 21:35 Clear 82 27.8 64 18 55 55 SE 26 43 29.4 995 10 16.0934 0 0
9:55 pm 21:55 Clear 81 27.2 64 17.8 57 57 SSE 23 37 29.41 996 10 16.0934 0 0
10:15 pm 22:15 Clear 80 26.9 64 17.6 57 57 SSE 20 31 29.42 996 10 16.0934 0 0
10:35 pm 22:35 Clear 80 26.5 64 17.5 58 58 SSE 23 37 29.44 997 10 16.0934 0 0
10:55 pm 22:55 Clear 80 26.4 64 17.5 58 58 SSE 22 35 29.44 997 10 16.0934 0 0
11:15 pm 23:15 Clear 79 26.1 64 17.6 60 60 SSE 20 31 29.44 997 10 16.0934 0 0
11:35 pm 23:35 Clear 78 25.8 64 17.5 60 60 SSE 20 31 29.44 997 10 16.0934 0 0
11:55 pm 23:55 Clear 78 25.5 64 17.5 61 61 SSE 20 31 29.44 997 10 16.0934 0 0

Powered by AerisWeather